User: anonymous   Login
Location: Unspecified
(0.0000°N, 0.0000°E)
Time: 12:46:07
(UTC+00:00)
Language:

GONETS M04 - Orbit

View from above orbital plane
View from above orbital plane
View from above satellite
View from above satellite

Ground track
Ground track

The orbit data is extracted from the following two-line orbital elements,

1 38736U 12041D   17263.00828094  .00000010  00000-0  00000+0 0  9995
2 38736  82.4771 265.0255 0020937 171.3390 188.8059 12.42891601233526
Epoch (UTC): 20 September 2017 00:11:55
Eccentricity: 0.0020937
inclination: 82.4771°
perigee height: 1478 km
apogee height: 1511 km
right ascension of ascending node: 265.0255°
argument of perigee: 171.3390°
revolutions per day: 12.42891601
mean anomaly at epoch: 188.8059°
orbit number at epoch: 23352

The dashed part of the orbit path shows where the satellite is in the earth's shadow,  

DLR